Orbital Elements at Epoch 2459200.5 (2020-Dec-17.0) TDB
Reference: JPL 15 (heliocentric ecliptic J2000)
Element | Value | Uncertainty (1-sigma) | Units |
e | .1160227979555278 | 7.0325e-08 | |
a | 2.544542059311283 | 1.751e-08 | au |
q | 2.249317170074467 | 1.8277e-07 | au |
i | 8.368549601414649 | 7.0294e-06 | deg |
node | 157.3317806254381 | 3.4375e-05 | deg |
peri | 20.50915065204692 | 4.3156e-05 | deg |
M | 28.52688904450528 | 3.0928e-05 | deg |
tp | 2459083.019769550797 (2020-Aug-21.51976955) | 0.00012671 | TDB |
period | 1482.562045084241 4.06 | 1.5303e-05 4.19e-08 | d yr |
n | .2428228897358183 | 2.5065e-09 | deg/d |
Q | 2.839766948548099 | 1.9542e-08 | au |
|
| | Orbit Determination Parameters
Additional Information
|